Weather History for KWRI - October, 2012

Change the Weather History Date:

Tuesday, October 9, 2012

  Actual Average Record
Temperature  
Mean Temperature 54 °F -  
Max Temperature 59 °F 67 °F 86 °F (1997)
Min Temperature 50 °F 46 °F 32 °F (2000)
Degree Days  
Heating Degree Days 10    
Growing Degree Days 4 (Base 50)    
Moisture  
Dew Point 52 °F    
Average Humidity 90    
Maximum Humidity 100    
Minimum Humidity 76    
Precipitation  
Precipitation 0.02 in - - ()
Sea Level Pressure  
Sea Level Pressure 30.12 in    
Wind  
Wind Speed 8 mph (NNE)    
Max Wind Speed 13 mph    
Max Gust Speed -    
Visibility 9 miles    
Events Rain    
Averages and records for this station are not official NWS values.
T = Trace of Precipitation, MM = Missing Value Source: NWS Daily Summary

Daily Weather History Graph

Daily Weather History Graph

Search for Another Location

Airport or City:

Trip Planner

Search our weather history database for the weather conditions in past years. The results will help you decide how hot, cold, wet, or windy it might be!

Date:

Astronomy

Oct. 09, 2012 Rise Set
Actual Time 7:03 AM EDT 6:27 PM EDT
Civil Twilight 6:35 AM EDT 6:54 PM EDT
Nautical Twilight 6:04 AM EDT 7:25 PM EDT
Astronomical Twilight 5:33 AM EDT 7:57 PM EDT
Moon 12:37 AM EDT (10/9) 2:53 PM EDT (10/9)
Length of Visible Light 12h 18m
Length of Day
11h 24m
Last Quarter, 37% of the Moon is Illuminated
Oct 9
Last Quarter
Oct 15
New
Oct 21
First Quarter
Oct 29
Full
Nov 6
Last Quarter

Hourly Weather History & Observations

Time (EDT) Temp. Dew Point Humidity Pressure Visibility Wind Dir Wind Speed Gust Speed Precip Events Conditions
12:28 AM 50.0 °F 44.6 °F 82% 30.20 in 10.0 mi North 4.6 mph - N/A   Overcast
12:29 AM 50.0 °F 44.6 °F 82% 30.20 in 10.0 mi North 4.6 mph - N/A   Overcast
12:31 AM 50.0 °F 44.6 °F 82% 30.20 in 10.0 mi North 4.6 mph - N/A   Overcast
12:49 AM 50.0 °F 44.6 °F 82% 30.19 in 10.0 mi North 4.6 mph - N/A   Mostly Cloudy
12:55 AM 50.2 °F 44.6 °F 81% 30.18 in 10.0 mi North 6.9 mph - N/A   Mostly Cloudy
1:51 AM 50.0 °F 44.6 °F 82% 30.18 in 10.0 mi North 9.2 mph - N/A   Overcast
1:55 AM 50.7 °F 45.0 °F 81% 30.18 in 10.0 mi North 8.1 mph - N/A   Overcast
2:28 AM 51.8 °F 44.6 °F 76% 30.17 in 10.0 mi North 8.1 mph - N/A   Overcast
2:33 AM 51.8 °F 44.6 °F 76% 30.17 in 10.0 mi North 8.1 mph - N/A   Overcast
2:39 AM 51.8 °F 44.6 °F 76% 30.17 in 10.0 mi North 6.9 mph - N/A   Overcast
2:43 AM 51.8 °F 44.6 °F 76% 30.17 in 10.0 mi North 8.1 mph - N/A   Overcast
2:55 AM 51.3 °F 45.0 °F 79% 30.17 in 10.0 mi North 8.1 mph - N/A   Overcast
3:55 AM 51.4 °F 44.8 °F 78% 30.16 in 10.0 mi North 8.1 mph - N/A   Overcast
4:55 AM 52.0 °F 45.1 °F 77% 30.15 in 10.0 mi NNE 12.7 mph - N/A   Overcast
5:55 AM 52.3 °F 45.9 °F 79% 30.15 in 10.0 mi NNE 11.5 mph - N/A   Overcast
6:26 AM 51.8 °F 46.4 °F 82% 30.15 in 10.0 mi North 12.7 mph - N/A Rain Light Rain
6:55 AM 50.9 °F 47.3 °F 87% 30.15 in 10.0 mi North 10.4 mph - 0.01 in Rain Light Rain
7:00 AM 50.0 °F 48.2 °F 94% 30.15 in 10.0 mi North 10.4 mph - N/A Rain Light Rain
7:25 AM 50.0 °F 48.2 °F 94% 30.15 in 10.0 mi North 10.4 mph - N/A Rain Light Rain
7:31 AM 50.0 °F 48.2 °F 94% 30.15 in 10.0 mi North 11.5 mph - N/A Rain Light Rain
7:32 AM 50.0 °F 48.2 °F 94% 30.15 in 9.0 mi North 11.5 mph - N/A Rain Light Rain
7:55 AM 50.4 °F 48.2 °F 92% 30.15 in 10.0 mi North 11.5 mph - 0.01 in Rain Light Rain
8:02 AM 50.0 °F 48.2 °F 94% 30.15 in 10.0 mi North 11.5 mph - N/A   Overcast
8:28 AM 50.0 °F 48.2 °F 94% 30.16 in 10.0 mi NNW 9.2 mph - N/A   Overcast
8:41 AM 50.0 °F 48.2 °F 94% 30.16 in 10.0 mi North 10.4 mph - N/A   Overcast
8:51 AM 50.0 °F 48.2 °F 94% 30.17 in 10.0 mi North 8.1 mph - N/A   Overcast
8:53 AM 50.0 °F 48.2 °F 94% 30.16 in 10.0 mi North 9.2 mph - N/A Rain Light Rain
8:55 AM 50.5 °F 48.9 °F 94% 30.17 in 10.0 mi North 8.1 mph - 0.00 in Rain Light Rain
9:14 AM 51.8 °F 50.0 °F 94% 30.17 in 10.0 mi North 8.1 mph - N/A   Light Drizzle
9:22 AM 51.8 °F 50.0 °F 94% 30.17 in 10.0 mi North 9.2 mph - N/A   Overcast
9:34 AM 51.8 °F 50.0 °F 94% 30.17 in 10.0 mi North 10.4 mph - N/A   Overcast
9:55 AM 52.2 °F 50.5 °F 94% 30.17 in 10.0 mi North 9.2 mph - 0.00 in   Overcast
10:42 AM 55.4 °F 51.8 °F 88% 30.16 in 10.0 mi NNE 11.5 mph - N/A   Overcast
10:55 AM 55.4 °F 52.3 °F 89% 30.16 in 10.0 mi NNE 11.5 mph - N/A   Overcast
11:05 AM 55.4 °F 51.8 °F 88% 30.16 in 10.0 mi NNE 11.5 mph - N/A Rain Light Rain
11:11 AM 55.4 °F 51.8 °F 88% 30.16 in 10.0 mi North 10.4 mph - N/A   Overcast
11:36 AM 57.2 °F 53.6 °F 88% 30.15 in 10.0 mi North 9.2 mph - N/A Rain Light Rain
11:55 AM 56.1 °F 52.9 °F 89% 30.15 in 10.0 mi NNE 10.4 mph - 0.00 in   Light Drizzle
11:57 AM 55.4 °F 53.6 °F 94% 30.15 in 10.0 mi NNE 8.1 mph - N/A   Overcast
12:09 PM 57.2 °F 53.6 °F 88% 30.14 in 10.0 mi NNE 10.4 mph - N/A   Overcast
12:55 PM 57.9 °F 54.0 °F 87% 30.13 in 10.0 mi NE 11.5 mph - 0.00 in   Overcast
1:10 PM 59.0 °F 53.6 °F 82% 30.12 in 10.0 mi NE 10.4 mph - N/A   Overcast
1:55 PM 58.6 °F 54.1 °F 85% 30.10 in 10.0 mi NNE 10.4 mph - N/A   Overcast
2:47 PM 59.0 °F 53.6 °F 82% 30.10 in 10.0 mi NNE 8.1 mph - N/A   Overcast
2:55 PM 58.6 °F 54.3 °F 86% 30.09 in 10.0 mi NE 12.7 mph - N/A   Overcast
2:57 PM 59.0 °F 53.6 °F 82% 30.10 in 10.0 mi NE 12.7 mph - N/A   Overcast
3:03 PM 59.0 °F 53.6 °F 82% 30.10 in 10.0 mi NE 12.7 mph - N/A   Overcast
3:31 PM 59.0 °F 55.4 °F 88% 30.09 in 10.0 mi NE 10.4 mph - N/A   Overcast
3:55 PM 58.8 °F 54.7 °F 86% 30.09 in 10.0 mi NE 12.7 mph - N/A   Overcast
4:55 PM 58.3 °F 55.2 °F 90% 30.09 in 10.0 mi NNE 9.2 mph - N/A   Overcast
5:20 PM 57.2 °F 55.4 °F 94% 30.09 in 10.0 mi NE 9.2 mph - N/A   Overcast
5:29 PM 57.2 °F 55.4 °F 94% 30.09 in 9.0 mi NNE 9.2 mph - N/A   Overcast
5:55 PM 57.4 °F 55.8 °F 94% 30.09 in 10.0 mi NNE 6.9 mph - N/A   Overcast
6:09 PM 57.2 °F 55.4 °F 94% 30.09 in 5.0 mi North 8.1 mph - N/A   Overcast
6:26 PM 57.2 °F 55.4 °F 94% 30.08 in 2.5 mi NNE 8.1 mph - N/A   Overcast
6:31 PM 57.2 °F 55.4 °F 94% 30.08 in 3.0 mi NNE 6.9 mph - N/A   Overcast
6:34 PM 57.2 °F 55.4 °F 94% 30.08 in 3.0 mi NNE 6.9 mph - N/A   Overcast
6:40 PM 57.2 °F 55.4 °F 94% 30.08 in 5.0 mi NNE 8.1 mph - N/A   Overcast
6:43 PM 57.2 °F 55.4 °F 94% 30.08 in 6.0 mi NNE 8.1 mph - N/A   Overcast
6:44 PM 57.2 °F 55.4 °F 94% 30.08 in 6.0 mi NNE 8.1 mph - N/A   Overcast
6:45 PM 57.2 °F 55.4 °F 94% 30.08 in 6.0 mi NNE 8.1 mph - N/A   Overcast
6:49 PM 57.2 °F 55.4 °F 94% 30.08 in 6.0 mi NNE 6.9 mph - N/A   Overcast
6:51 PM 57.2 °F 55.4 °F 94% 30.08 in 7.0 mi NNE 8.1 mph - N/A   Overcast
6:53 PM 57.2 °F 55.4 °F 94% 30.08 in 7.0 mi NNE 6.9 mph - N/A   Overcast
6:55 PM 56.8 °F 55.9 °F 97% 30.08 in 8.0 mi NNE 8.1 mph - N/A   Overcast
7:00 PM 57.2 °F 55.4 °F 94% 30.09 in 8.0 mi NNE 6.9 mph - N/A   Overcast
7:11 PM 57.2 °F 55.4 °F 94% 30.08 in 8.0 mi NNE 6.9 mph - N/A Rain Light Rain
7:20 PM 57.2 °F 55.4 °F 94% 30.08 in 9.0 mi NNE 8.1 mph - N/A Rain Light Rain
7:22 PM 57.2 °F 55.4 °F 94% 30.08 in 10.0 mi NNE 8.1 mph - N/A   Overcast
7:55 PM 56.8 °F 56.1 °F 97% 30.08 in 10.0 mi NNE 8.1 mph - 0.00 in   Overcast
8:55 PM 57.0 °F 55.9 °F 96% 30.07 in 10.0 mi NNE 5.8 mph - N/A   Overcast
9:18 PM 57.2 °F 55.4 °F 94% 30.07 in 10.0 mi NNE 8.1 mph - N/A   Overcast
9:25 PM 57.2 °F 55.4 °F 94% 30.07 in 10.0 mi NE 6.9 mph - N/A   Overcast
9:55 PM 57.0 °F 55.9 °F 96% 30.07 in 10.0 mi NNE 6.9 mph - N/A   Overcast
10:07 PM 57.2 °F 55.4 °F 94% 30.07 in 10.0 mi NNE 6.9 mph - N/A Rain Light Rain
10:26 PM 57.2 °F 55.4 °F 94% 30.06 in 7.0 mi NNE 6.9 mph - N/A   Overcast
10:43 PM 57.2 °F 55.4 °F 94% 30.06 in 9.0 mi NNE 6.9 mph - N/A   Overcast
10:55 PM 57.0 °F 56.1 °F 97% 30.06 in 10.0 mi NNE 6.9 mph - 0.00 in   Overcast
11:09 PM 57.2 °F 55.4 °F 94% 30.05 in 8.0 mi NNE 6.9 mph - N/A Rain Light Rain
11:31 PM 57.2 °F 55.4 °F 94% 30.04 in 7.0 mi NNE 8.1 mph - N/A Rain Light Rain
11:43 PM 57.2 °F 57.2 °F 100% 30.04 in 8.0 mi NNE 5.8 mph - N/A   Overcast
11:55 PM 57.2 °F 56.7 °F 98% 30.04 in 10.0 mi North 5.8 mph - 0.00 in   Overcast